Location: Newark
(36.3167°N, 139.0000°E)
Time: 09:38:18
(UTC+00:00)

N. Korean satellite - Visible Passes

Search period start: 15 September 2019 00:00
Search period end: 25 September 2019 00:00
Orbit: 455 x 508 km, 97.2° (Epoch: 14 September)

Date Brightness Start Highest point End Pass type
(mag) Time Alt. Az. Time Alt. Az. Time Alt. Az.
15 Sep 9.9 19:45:36 10° ENE 19:47:24 14° E 19:49:13 10° SE visible
19 Sep 10.2 19:38:55 10° ENE 19:39:52 11° E 19:40:50 10° ESE visible
22 Sep 9.7 19:55:10 10° NE 19:57:41 19° E 20:00:13 10° SE visible
